Location: Zapote
(9.9191°N, 84.0597°W)
Time: 16:51:20
(UTC-06:00)

Transit 2A - Pass Details

Date: 05 March 2021
Orbit: 602 x 957 km, 66.7° (Epoch: 16 April)

Event Time Altitude Azimuth Distance (km) Brightness Sun altitude
Rises 03:00:20 0° 4° (N) 2,854 - -42.2°
Reaches altitude 10° 03:03:06 10° 23° (NNE) 1,977 - -41.5°
Maximum altitude 03:06:16 19° 69° (ENE) 1,510 - -40.7°
Exits shadow 03:09:07 12° 110° (ESE) 1,955 8.7 -40.0°
Drops below altitude 10° 03:09:34 10° 114° (ESE) 2,079 8.8 -39.9°
Sets 03:12:32 0° 132° (SE) 3,056 9.7 -39.2°
